This is the latest recevied weather packets stored in our database for station/object WC4PEM. If no packets are shown the sender has not sent any weather packets the latest 1 day(s).
| Time | Temp. | Humidity | Pressure | Rain* | Wind** | Luminosity | Snow |
|---|---|---|---|---|---|---|---|
| 1777995867 | 28.33° C | 54% | 1015.7 hPa | 0 mm | 4.47 m/s, 63° | - | - |
| 1777995567 | 28.89° C | 52% | 1015.7 hPa | 0 mm | 4.92 m/s, 63° | - | - |
| 1777995366 | 28.33° C | 53% | 1015.6 hPa | 0 mm | 5.36 m/s, 92° | - | - |
| 1777995267 | 28.33° C | 53% | 1015.6 hPa | 0 mm | 5.36 m/s, 92° | - | - |
| 1777994967 | 28.89° C | 52% | 1015.5 hPa | 0 mm | 5.36 m/s, 92° | - | - |
| 1777994758 | 28.89° C | 53% | 1015.6 hPa | 0 mm | 5.36 m/s, 88° | - | - |
| 1777994667 | 28.89° C | 53% | 1015.6 hPa | 0 mm | 5.36 m/s, 88° | - | - |
| 1777994367 | 28.33° C | 51% | 1015.5 hPa | 0 mm | 4.92 m/s, 68° | - | - |
| 1777994203 | 28.33° C | 57% | 1015.6 hPa | 0 mm | 4.02 m/s, 80° | - | - |
| 1777994067 | 28.33° C | 57% | 1015.6 hPa | 0 mm | 4.02 m/s, 80° | - | - |
| 1777993767 | 28.33° C | 56% | 1015.7 hPa | 0 mm | 4.47 m/s, 68° | - | - |
| 1777993467 | 27.78° C | 57% | 1015.6 hPa | 0 mm | 4.47 m/s, 69° | - | - |
| 1777993167 | 27.78° C | 59% | 1015.6 hPa | 0 mm | 4.47 m/s, 84° | - | - |
| 1777993086 | 27.78° C | 60% | 1015.7 hPa | 0 mm | 4.92 m/s, 131° | - | - |
| 1777992867 | 27.78° C | 60% | 1015.7 hPa | 0 mm | 4.92 m/s, 131° | - | - |
| 1777992672 | 27.22° C | 60% | 1015.7 hPa | 0 mm | 4.92 m/s, 55° | - | - |
| 1777992567 | 27.22° C | 60% | 1015.7 hPa | 0 mm | 4.92 m/s, 55° | - | - |
| 1777992267 | 27.22° C | 61% | 1015.6 hPa | 0 mm | 4.92 m/s, 95° | - | - |
| 1777992091 | 26.67° C | 63% | 1015.6 hPa | 0 mm | 5.36 m/s, 54° | - | - |
| 1777991988 | 27.22° C | 62% | 1015.4 hPa | 0 mm | 5.36 m/s, 106° | - | - |
| 1777991968 | 26.67° C | 63% | 1015.6 hPa | 0 mm | 5.36 m/s, 54° | - | - |
| 1777991667 | 27.22° C | 62% | 1015.4 hPa | 0 mm | 5.36 m/s, 106° | - | - |
| 1777991368 | 27.22° C | 63% | 1015.4 hPa | 0 mm | 5.36 m/s, 82° | - | - |
| 1777991068 | 27.22° C | 63% | 1015.4 hPa | 0 mm | 4.92 m/s, 80° | - | - |
| 1777990768 | 26.67° C | 64% | 1015.3 hPa | 0 mm | 4.47 m/s, 74° | - | - |
* Rain latest hour (hover to see other rain measurements)
** Current wind speed in m/s (hover to see current wind gust speed)